Temp
16 13 14 15 14 15 16 15 15 14 16 16 14 15 14 15 15 14 15 14 15 17 18 19 19 19 19 18 18 18 17 17 16 15 14 13 13 13 13 13 13 13 12 12
13 13 15 15 15 16 16 15 14 14 16 15 15 15 13 13 14 13 12 13 14 15 18 19 20 20 20 19 19 19 18 17 17 16 15 15 15 14 14 13 13 13 12 12
14 16 17 16 17 16 16 15 15 16 14 15 15 14 13 15 13 14 14 13 13 13 15 18 20 20 19 19 19 19 19 18 17 16 16 15 14 14 13 14 14 13 13 13
14 16 17 17 16 15 15 15 16 16 14 14 14 13 14 13 11 10 12 12 12 13 14 15 15 17 19 19 18 18 18 19 18 17 16 16 16 15 15 15 15 14 13 13
15 16 17 17 17 16 15 16 15 15 12 13 13 12 12 13 12 10 10 11 12 12 13 13 14 15 17 18 18 18 18 18 18 18 17 16 16 16 15 15 14 14 14 13
13 16 16 16 16 16 15 14 11 10 10 11 12 12 12 13 13 11 9 10 11 12 12 13 13 14 15 16 16 16 16 17 17 17 17 17 17 16 15 15 15 14 14 14
12 15 15 16 16 15 13 11 12 13 12 13 12 13 12 11 10 10 8 10 10 11 11 11 12 12 13 13 14 14 15 15 15 15 15 15 15 16 16 15 15 14 14 14
11 14 15 15 16 15 14 12 11 15 13 13 13 12 11 9 10 10 10 9 10 10 11 11 11 11 11 12 12 13 13 13 14 14 14 14 14 14 14 14 15 14 14 14
11 13 13 15 15 15 14 13 13 12 11 11 11 12 12 9 8 9 9 9 9 9 10 10 10 10 11 11 11 12 12 12 13 13 13 13 14 14 14 14 13 13 13 13
11 10 13 14 15 14 15 13 13 10 14 14 11 11 10 11 9 8 7 8 9 9 9 9 10 10 10 11 11 11 11 11 12 12 12 12 13 14 14 13 13 13 13 13
8 9 11 12 14 13 12 12 11 10 9 11 11 9 9 9 8 7 7 8 8 9 9 9 9 9 10 10 11 11 11 11 11 11 11 12 12 12 12 13 13 13 12 12
8 7 8 11 12 11 13 13 10 10 12 8 8 8 6 6 7 7 7 8 8 8 8 8 8 9 9 9 10 10 11 11 11 11 11 11 11 11 11 11 12 13 13 13
8 7 7 10 11 9 9 10 9 9 8 9 9 7 7 6 6 6 7 8 8 8 8 8 8 8 8 9 9 9 10 10 10 11 11 11 11 11 11 11 10 11 12 12
8 6 7 8 8 7 8 8 9 9 8 9 9 6 6 5 5 6 7 7 7 8 8 8 8 8 7 8 8 8 9 9 9 10 10 10 10 10 10 11 11 11 10 10
4 5 5 6 6 7 7 7 5 8 8 9 7 5 5 5 5 6 6 7 7 7 6 6 6 7 7 7 7 8 8 8 8 9 9 9 9 10 10 10 11 11 11 11
3 4 3 4 6 6 7 4 6 4 4 5 5 4 5 6 6 6 5 5 6 6 5 5 5 5 6 6 6 6 6 6 7 7 7 8 8 8 9 9 10 10 10 11
2 2 2 3 4 4 5 4 4 4 3 4 4 5 5 5 5 5 5 5 5 5 5 5 4 5 5 5 5 5 6 6 6 6 6 6 6 7 7 7 8 8 9 9
2 2 2 2 3 5 3 5 4 3 4 4 4 5 4 4 6 6 6 5 4 4 4 4 4 4 4 4 4 4 5 5 5 5 5 5 5 6 6 6 6 7 7 7
2 2 2 2 2 4 4 5 5 4 4 5 5 4 4 4 5 6 5 4 4 4 3 3 3 3 4 4 4 4 4 4 4 4 4 4 4 5 5 5 5 5 5 6
1 2 2 1 3 4 3 4 5 4 3 5 5 4 4 4 2 3 3 3 3 3 2 2 2 2 2 2 2 3 3 3 3 4 4 4 4 4 4 4 4 4 4 5
1 1 -0 1 2 2 3 4 5 3 2 4 4 4 4 3 3 2 2 2 2 1 1 0 -1 -1 -1 -0 0 0 1 1 1 2 2 2 3 3 3 3 3 3 4 4
2 0 1 1 2 2 5 4 3 4 4 4 4 3 3 2 2 2 1 0 -0 -1 -1 -1 -2 -3 -3 -3 -3 -3 -2 -2 -2 -1 0 1 1 1 2 2 2 2 2 3
0 0 -1 -0 1 2 4 4 3 4 4 3 3 2 2 1 0 -1 -2 -2 -3 -4 -4 -4 -5 -5 -5 -4 -4 -4 -4 -4 -4 -3 -3 -2 -2 -1 -1 -1 0 0 0 1
0 1 -1 -0 1 3 3 3 3 3 3 3 2 0 -0 -1 -2 -2 -3 -3 -5 -5 -5 -6 -5 -5 -5 -5 -5 -5 -5 -4 -4 -4 -4 -4 -4 -3 -3 -3 -2 -2 -2 -1
0 1 -1 -2 0 2 3 3 2 2 2 2 1 1 -0 -1 -2 -3 -4 -4 -5 -6 -6 -6 -6 -6 -6 -6 -5 -5 -5 -5 -5 -6 -6 -5 -5 -4 -4 -3 -3 -2 -2 -2
0 -0 -2 -1 2 2 2 3 2 2 1 -0 -1 -1 -2 -3 -3 -4 -4 -5 -6 -6 -6 -6 -6 -7 -6 -6 -6 -6 -7 -7 -7 -7 -7 -7 -6 -6 -6 -5 -5 -4 -4 -3
Height
1516 1523 1525 1519 1519 1519 1519 1523 1525 1520 1512 1512 1517 1514 1511 1505 1499 1497 1495 1490 1485 1484 1486 1488 1491 1494 1497 1501 1504 1507 1510 1512 1516 1519 1521 1523 1524 1527 1529 1530 1532 1533 1535 1537
1523 1526 1515 1515 1516 1517 1519 1522 1525 1518 1513 1513 1517 1516 1513 1509 1507 1505 1501 1497 1492 1488 1485 1485 1487 1488 1491 1495 1499 1503 1507 1510 1513 1516 1518 1520 1523 1525 1527 1529 1530 1531 1533 1534
1524 1517 1513 1514 1515 1518 1519 1521 1520 1519 1516 1514 1516 1522 1519 1512 1510 1507 1504 1502 1497 1492 1487 1485 1484 1486 1487 1490 1494 1499 1503 1507 1510 1514 1516 1519 1521 1523 1524 1524 1526 1527 1529 1531
1519 1513 1512 1514 1516 1517 1522 1515 1515 1517 1524 1531 1520 1539 1521 1518 1517 1513 1509 1505 1501 1496 1492 1489 1487 1485 1485 1487 1491 1497 1501 1504 1508 1511 1513 1516 1518 1519 1521 1522 1523 1525 1526 1527
1519 1513 1513 1515 1514 1513 1519 1514 1517 1517 1527 1527 1526 1535 1526 1518 1523 1522 1517 1512 1507 1503 1499 1495 1491 1488 1484 1485 1489 1494 1498 1502 1505 1508 1511 1513 1515 1517 1519 1520 1521 1522 1523 1524
1516 1511 1511 1511 1511 1511 1512 1516 1523 1528 1533 1541 1525 1529 1532 1524 1523 1525 1522 1517 1513 1508 1505 1502 1499 1494 1489 1487 1488 1491 1495 1500 1503 1507 1509 1511 1513 1514 1516 1517 1518 1519 1520 1521
1520 1513 1510 1510 1512 1512 1515 1526 1539 1535 1538 1534 1524 1528 1530 1526 1526 1527 1525 1522 1518 1514 1510 1506 1502 1498 1496 1493 1492 1493 1495 1498 1502 1505 1507 1509 1511 1512 1513 1514 1515 1516 1517 1517
1536 1527 1513 1511 1511 1515 1516 1523 1539 1530 1538 1534 1522 1534 1535 1532 1530 1529 1527 1526 1523 1519 1516 1512 1509 1506 1504 1502 1499 1498 1498 1499 1501 1503 1504 1506 1507 1508 1508 1510 1511 1511 1511 1512
1538 1527 1513 1512 1512 1514 1520 1525 1521 1531 1537 1539 1535 1533 1532 1533 1533 1531 1528 1526 1525 1523 1520 1517 1515 1512 1510 1507 1505 1504 1503 1502 1502 1503 1503 1502 1502 1502 1503 1504 1505 1505 1506 1507
1536 1540 1519 1514 1512 1514 1515 1519 1527 1536 1532 1532 1536 1537 1540 1534 1536 1534 1532 1529 1529 1527 1525 1523 1521 1518 1516 1513 1511 1509 1507 1505 1505 1503 1502 1500 1499 1498 1498 1498 1498 1498 1499 1500
1540 1540 1529 1519 1518 1520 1522 1523 1526 1531 1535 1533 1539 1543 1537 1535 1537 1537 1535 1533 1531 1530 1529 1527 1525 1523 1520 1517 1514 1512 1509 1507 1505 1504 1502 1500 1498 1496 1494 1494 1493 1492 1492 1492
1542 1544 1543 1529 1519 1520 1519 1521 1526 1536 1529 1539 1540 1546 1542 1538 1537 1538 1538 1536 1534 1532 1531 1530 1528 1525 1522 1519 1516 1514 1511 1509 1507 1505 1504 1501 1499 1496 1494 1491 1489 1487 1486 1486
1544 1546 1549 1532 1528 1525 1532 1530 1532 1531 1533 1533 1539 1546 1543 1540 1539 1539 1538 1537 1535 1534 1533 1532 1529 1526 1523 1520 1517 1515 1512 1510 1508 1506 1503 1501 1498 1495 1493 1491 1488 1486 1483 1481
1544 1548 1548 1551 1549 1548 1542 1535 1534 1534 1540 1534 1531 1543 1545 1543 1542 1541 1539 1538 1537 1536 1534 1532 1528 1526 1524 1521 1518 1515 1513 1510 1507 1505 1502 1499 1497 1494 1492 1489 1487 1484 1481 1478
1551 1553 1552 1548 1547 1545 1542 1540 1542 1535 1532 1532 1539 1544 1547 1545 1543 1542 1542 1541 1540 1539 1537 1534 1531 1527 1523 1519 1516 1514 1512 1509 1506 1503 1500 1498 1495 1492 1490 1487 1484 1481 1479 1476
1556 1556 1556 1553 1545 1544 1540 1544 1539 1542 1541 1541 1542 1548 1545 1545 1544 1543 1543 1542 1541 1541 1538 1535 1531 1527 1523 1520 1516 1512 1509 1507 1504 1501 1498 1495 1492 1488 1486 1483 1480 1477 1474 1472
1561 1560 1560 1557 1550 1546 1544 1548 1547 1548 1545 1543 1547 1547 1546 1545 1544 1544 1544 1543 1541 1539 1537 1534 1531 1527 1524 1519 1516 1511 1507 1504 1501 1498 1494 1491 1487 1484 1481 1478 1475 1472 1469 1467
1560 1561 1562 1561 1555 1548 1551 1547 1547 1550 1549 1547 1547 1547 1547 1547 1545 1545 1544 1543 1540 1538 1535 1532 1529 1524 1520 1516 1513 1509 1505 1501 1498 1494 1490 1487 1483 1480 1476 1473 1471 1468 1465 1462
1556 1560 1563 1562 1561 1553 1548 1547 1548 1548 1551 1547 1547 1547 1547 1546 1546 1544 1543 1541 1538 1535 1532 1528 1524 1521 1517 1512 1507 1503 1500 1497 1493 1490 1486 1482 1479 1476 1472 1468 1465 1462 1459 1456
1556 1558 1562 1565 1560 1548 1551 1546 1545 1544 1550 1547 1545 1545 1544 1543 1544 1541 1540 1537 1534 1532 1528 1524 1519 1515 1511 1507 1504 1499 1495 1491 1488 1484 1481 1478 1475 1471 1467 1464 1461 1457 1454 1450
1561 1561 1568 1565 1559 1552 1548 1546 1542 1549 1553 1543 1543 1542 1541 1541 1540 1537 1535 1532 1529 1525 1520 1516 1513 1509 1505 1500 1496 1493 1490 1487 1482 1477 1474 1471 1468 1465 1461 1457 1454 1450 1447 1443
1562 1566 1564 1560 1555 1551 1546 1547 1550 1546 1541 1541 1540 1540 1538 1537 1535 1532 1529 1526 1522 1517 1513 1509 1505 1501 1498 1495 1491 1487 1483 1478 1474 1470 1466 1463 1459 1456 1453 1449 1445 1442 1439 1435
1566 1560 1565 1561 1552 1545 1545 1545 1544 1541 1540 1539 1538 1537 1535 1533 1531 1528 1524 1520 1516 1512 1508 1504 1500 1496 1492 1490 1486 1481 1477 1473 1467 1463 1458 1454 1450 1447 1444 1439 1436 1433 1431 1427
1558 1554 1557 1553 1546 1543 1542 1541 1540 1539 1537 1536 1536 1534 1532 1529 1526 1522 1518 1514 1511 1507 1503 1499 1495 1491 1487 1484 1480 1476 1471 1466 1461 1457 1453 1449 1444 1440 1437 1434 1431 1427 1424 1420
1555 1553 1551 1550 1543 1539 1537 1537 1536 1535 1535 1534 1532 1530 1527 1524 1521 1517 1514 1510 1506 1503 1500 1497 1493 1489 1485 1480 1476 1471 1465 1459 1455 1451 1447 1442 1438 1435 1430 1427 1424 1421 1419 1417
1547 1545 1549 1542 1536 1536 1534 1534 1534 1532 1531 1529 1527 1525 1523 1520 1517 1514 1511 1508 1505 1501 1498 1494 1491 1487 1483 1478 1473 1467 1461 1455 1450 1445 1441 1436 1432 1428 1425 1420 1414 1414 1411 1407
Wind_Speed
3 5 2 5 5 4 2 2 4 4 2 3 3 3 7 14 24 28 28 32 19 6 11 17 29 34 35 33 30 28 27 26 25 24 22 22 23 22 22 19 16 15 15 15
6 3 4 3 2 3 3 2 5 4 3 3 3 3 5 9 10 17 23 27 27 25 11 2 10 19 31 34 32 30 29 29 27 26 24 22 19 20 22 21 20 18 18 18
4 5 2 3 1 2 3 4 2 2 5 4 2 5 6 5 19 27 30 28 31 32 27 16 5 7 16 26 33 30 27 28 28 28 27 25 23 22 22 23 23 21 19 19
4 4 1 0 3 4 3 2 1 0 3 3 2 3 3 4 8 13 26 32 34 35 33 27 20 8 9 20 28 32 31 27 27 28 28 27 24 22 19 19 19 20 21 21
6 2 1 1 3 3 5 1 2 2 3 2 2 4 5 3 7 8 18 27 31 34 36 35 31 27 10 9 17 26 29 30 29 27 26 27 26 24 22 20 19 19 20 22
6 4 2 4 0 1 2 3 6 4 3 1 4 4 3 1 4 4 12 26 29 32 33 35 35 32 31 9 7 14 21 26 27 28 27 24 22 22 23 22 21 19 19 20
6 3 3 0 2 3 5 5 3 3 2 4 1 4 2 5 7 6 9 23 27 30 33 34 36 37 35 32 19 3 6 13 20 25 27 29 28 25 24 23 23 22 21 21
3 5 2 2 1 2 1 5 4 2 1 3 1 3 3 4 14 17 21 23 27 30 31 33 33 34 34 32 29 24 14 4 8 15 19 25 28 31 33 30 27 26 25 23
3 5 4 1 2 2 0 1 3 4 2 2 2 3 4 6 8 14 19 26 28 29 31 32 30 31 32 30 29 26 22 18 14 11 9 12 19 25 28 30 32 34 31 27
1 5 2 5 1 3 2 3 1 2 3 3 1 2 2 2 4 6 12 21 24 25 28 30 30 30 29 29 27 24 22 22 19 15 14 14 12 15 18 21 24 28 31 31
3 2 7 3 1 1 4 2 3 2 3 4 4 2 5 3 4 5 10 16 20 22 24 26 27 28 28 26 26 25 22 19 17 17 16 15 15 14 11 15 20 22 24 24
2 2 4 7 2 2 1 3 3 4 3 1 3 2 4 6 10 9 11 14 16 18 21 22 25 26 28 27 26 25 23 21 19 17 15 15 16 16 14 14 13 15 19 20
4 2 4 8 5 6 6 5 5 2 2 4 4 3 5 10 14 12 14 16 16 18 20 22 24 27 28 27 25 26 24 23 20 18 17 16 16 17 18 18 16 15 15 15
2 1 3 4 2 2 6 12 4 2 2 3 2 5 4 6 7 15 17 16 15 16 20 23 27 29 28 26 26 27 26 24 23 21 20 21 21 20 20 19 18 16 15 15
5 1 3 3 6 4 6 5 6 2 6 3 4 5 4 4 4 10 15 14 11 15 19 23 27 29 28 28 30 28 26 25 25 24 23 24 23 23 23 22 21 19 17 17
7 2 4 4 4 5 4 7 3 5 4 7 11 5 1 5 6 2 13 13 13 13 21 24 25 27 29 29 28 27 28 28 26 25 26 25 25 25 25 26 25 24 23 20
2 1 3 4 5 8 1 4 7 5 7 3 3 1 2 6 8 6 6 14 18 19 20 20 23 24 25 26 26 26 27 27 29 28 28 27 26 27 28 29 28 27 27 26
2 2 0 3 5 3 4 4 8 7 3 5 3 2 3 3 6 3 5 16 19 20 20 21 24 25 26 26 26 25 25 28 30 29 29 28 28 30 31 31 30 30 30 29
11 3 2 1 2 1 3 2 2 2 3 1 1 3 1 3 4 7 11 15 18 19 20 23 24 25 26 28 28 29 28 27 29 30 30 28 29 33 32 32 32 32 32 32
5 2 2 0 1 3 1 5 11 3 4 2 6 3 4 4 1 4 14 16 18 20 23 25 28 29 29 26 26 28 31 31 30 30 31 31 32 33 33 34 33 33 33 34
2 1 4 4 4 4 3 6 9 5 2 3 3 4 6 3 7 14 16 21 25 29 30 31 30 30 30 30 31 33 32 30 30 31 33 33 32 32 33 34 35 36 38 38
1 1 2 1 3 5 4 0 2 7 10 6 5 3 6 9 13 19 24 28 29 29 32 31 31 29 27 28 26 26 31 34 35 36 39 40 42 42 41 41 40 40 41 43
3 4 3 6 4 1 3 5 18 12 10 4 5 7 9 14 18 20 23 25 27 26 27 26 26 29 27 25 25 27 28 30 32 32 33 35 35 35 37 38 39 38 40 41
4 4 2 2 3 12 27 25 10 8 6 7 6 9 12 14 17 19 22 23 24 24 25 25 25 26 27 26 27 27 28 25 26 28 29 30 33 32 32 33 31 32 31 32
10 2 3 5 15 24 11 8 8 7 9 9 11 14 15 17 17 19 20 21 21 23 22 22 22 23 22 26 26 26 29 32 32 30 31 31 30 28 30 32 32 31 31 29
10 7 4 7 16 14 15 15 8 11 8 9 11 12 13 13 14 14 15 16 18 18 20 22 19 21 25 25 26 29 28 26 26 26 28 27 26 27 27 28 32 29 30 33
Wind_Direction
21 54 228 236 197 188 196 204 251 263 276 9 357 55 328 349 35 22 28 31 27 312 271 256 250 248 245 243 241 240 239 240 237 237 238 242 248 253 254 254 252 250 249 251
15 249 234 244 208 208 238 271 273 288 313 96 81 29 307 8 26 33 32 36 37 47 50 308 256 248 247 247 241 240 241 241 242 241 245 249 263 267 267 263 257 255 252 252
168 246 7 179 244 265 248 201 228 231 344 47 66 344 354 356 39 48 49 48 48 43 43 45 25 280 251 242 239 241 247 245 244 243 244 247 251 258 259 258 256 255 258 258
225 280 46 122 271 140 300 208 118 85 60 212 63 263 319 6 21 24 38 47 46 46 48 48 44 11 254 242 240 242 246 248 246 244 247 250 258 267 283 288 280 270 266 264
262 313 338 311 228 172 227 79 299 215 117 38 301 109 268 14 37 10 19 45 49 50 50 49 47 39 3 251 240 245 247 248 248 248 253 255 259 271 278 283 283 276 269 265
239 287 239 214 329 244 79 66 48 49 93 353 238 125 289 260 130 54 36 50 49 50 51 52 52 49 44 36 235 236 247 248 248 250 253 263 273 282 282 286 290 290 283 273
332 317 308 277 13 34 71 56 342 357 11 225 63 67 282 47 58 78 60 58 55 54 52 50 49 49 49 49 47 23 254 256 256 257 258 259 264 275 286 290 293 294 292 285
24 329 350 356 144 194 59 138 151 257 236 275 12 119 1 43 81 82 76 70 62 56 54 51 51 51 52 53 56 55 52 6 279 269 270 271 271 271 270 274 287 292 294 294
8 278 320 288 2 83 145 191 183 117 20 50 149 82 76 57 36 52 63 65 60 56 53 50 49 49 49 51 53 55 59 60 54 41 359 302 283 277 277 277 277 277 282 291
17 311 321 302 10 45 160 179 17 11 212 239 28 123 210 68 40 29 43 63 60 55 51 49 47 47 46 46 49 54 55 56 56 51 35 16 332 297 287 284 284 283 281 280
4 105 290 330 63 46 348 333 53 120 149 179 168 218 349 149 81 73 59 62 58 54 48 43 42 41 38 39 40 40 42 42 43 39 34 27 22 13 335 293 284 283 282 281
2 142 271 251 271 298 280 9 110 132 256 30 133 215 355 73 73 80 64 61 62 56 45 36 30 26 25 26 27 26 28 28 28 24 19 15 18 18 7 354 340 307 287 282
327 2 341 339 3 10 37 21 15 317 60 207 147 204 69 48 53 68 76 59 51 41 31 23 18 15 12 13 14 14 12 10 9 8 6 0 357 2 5 3 352 336 326 311
35 53 175 214 276 299 309 319 10 42 324 307 241 133 37 32 49 48 50 49 49 31 16 4 1 0 2 4 1 359 360 359 356 354 352 350 348 346 347 348 349 347 341 329
63 295 8 284 274 271 265 321 348 266 235 245 142 101 66 36 43 50 47 42 38 20 4 358 353 350 349 349 349 350 349 348 347 345 342 342 339 335 334 334 335 337 336 331
357 296 6 286 298 308 248 359 38 41 355 87 107 83 272 23 38 94 41 33 20 356 347 345 343 340 339 340 340 339 339 341 340 336 337 336 333 330 330 330 329 328 326 324
307 332 24 271 327 310 284 12 82 76 36 71 70 187 6 346 339 10 20 1 348 343 342 342 340 339 338 335 337 334 332 330 332 331 332 332 331 328 327 328 327 326 324 321
225 111 145 282 344 242 142 105 104 91 22 60 79 45 54 347 325 328 332 341 338 339 338 336 334 332 331 329 327 326 324 323 325 325 328 329 327 325 325 326 327 325 325 321
195 146 258 244 247 347 256 20 2 312 200 88 79 102 46 345 264 257 321 332 331 332 328 325 324 323 321 321 321 319 317 318 320 321 320 318 318 324 323 324 325 325 325 324
107 98 145 53 247 261 63 293 322 199 236 283 173 195 276 314 272 245 327 322 324 324 324 319 316 313 314 316 316 314 314 313 311 311 313 312 313 316 315 317 318 320 322 322
351 63 195 248 255 277 253 338 343 177 143 258 211 276 285 256 283 314 316 319 318 319 319 319 316 315 315 315 312 306 303 303 302 303 304 303 304 306 308 310 310 311 311 313
244 320 235 231 232 245 236 224 1 277 312 285 273 282 303 305 309 314 319 322 323 321 321 323 322 324 322 322 323 316 307 308 309 303 298 298 297 296 295 297 299 302 305 308
275 198 214 185 235 254 186 245 309 283 284 278 265 289 303 311 316 321 321 324 325 329 329 331 328 325 330 330 327 323 323 319 314 313 311 309 309 308 306 306 304 303 301 300
281 257 218 355 283 297 306 302 310 292 239 249 292 312 317 319 324 324 328 332 334 337 341 337 338 339 337 336 331 325 325 328 323 319 318 319 315 316 313 314 313 312 310 306
240 238 222 259 274 281 280 308 298 224 234 265 296 314 316 321 327 330 335 339 342 346 348 350 349 350 350 340 339 335 326 320 319 319 318 314 315 313 308 306 305 304 302 303
216 233 189 247 265 250 280 302 294 270 270 306 316 317 320 326 332 337 344 345 346 345 346 349 352 344 343 349 349 345 345 345 344 343 341 344 334 330 325 319 311 304 302 302